Location: Del Amo
(33.8464°N, 118.2104°W)
Time: 08:25:28
(UTC+00:00)

Vanguard 3 - Pass Details

Date: 15 September 2024
Orbit: 507 x 3223 km, 33.3° (Epoch: 09 October)

Event Time Altitude Azimuth Distance (km) Brightness Sun altitude
Rises 18:40:38 0° 280° (W) 7,153 11.7 55.1°
Reaches altitude 10° 18:45:41 10° 279° (W) 6,012 11.5 55.6°
Maximum altitude 19:03:45 78° 198° (SSW) 2,369 11.0 57.1°
Drops below altitude 10° 19:14:33 10° 114° (ESE) 3,814 11.0 57.8°
Sets 19:17:01 0° 112° (ESE) 4,507 11.2 57.9°
